www.pogodaiklimat.ru
ПОГОДА в Mittarfik Upernavik
Время
(UTC), дата
19 25.11
20 25.11
21 25.11
22 25.11
23 25.11
00 26.11
01 26.11
02 26.11
03 26.11
04 26.11
05 26.11
06 26.11
07 26.11
08 26.11
09 26.11
10 26.11
11 26.11
12 26.11
13 26.11
14 26.11
15 26.11
16 26.11
17 26.11
18 26.11
19 26.11
20 26.11
21 26.11
22 26.11
23 26.11
00 27.11
01 27.11
02 27.11
03 27.11
04 27.11
05 27.11
06 27.11
07 27.11
08 27.11
09 27.11
10 27.11
11 27.11
12 27.11
13 27.11
14 27.11
15 27.11
16 27.11
17 27.11
18 27.11
19 27.11
20 27.11
21 27.11
22 27.11
23 27.11
00 28.11
01 28.11
02 28.11
03 28.11
04 28.11
05 28.11
06 28.11
07 28.11
08 28.11
09 28.11
21 28.11
22 28.11
23 28.11
00 29.11
01 29.11
02 29.11
03 29.11
04 29.11
05 29.11
06 29.11
07 29.11
08 29.11
09 29.11
10 29.11
11 29.11
12 29.11
13 29.11
14 29.11
15 29.11
16 29.11
17 29.11
18 29.11
19 29.11
20 29.11
21 29.11
22 29.11
23 29.11
00 30.11
01 30.11
02 30.11
03 30.11
04 30.11
05 30.11
06 30.11
07 30.11
08 30.11
09 30.11
10 30.11
11 30.11
12 30.11
13 30.11
14 30.11
15 30.11
16 30.11
17 30.11
18 30.11
19 30.11
20 30.11
21 30.11
22 30.11
23 30.11
00 1.12
01 1.12
02 1.12
03 1.12
04 1.12
05 1.12
06 1.12
07 1.12
08 1.12
09 1.12
10 1.12
11 1.12
12 1.12
13 1.12
14 1.12
15 1.12
16 1.12
17 1.12
18 1.12
19 1.12
20 1.12
21 1.12
22 1.12
23 1.12
00 2.12
01 2.12
02 2.12
03 2.12
04 2.12
05 2.12
06 2.12
07 2.12
08 2.12
09 2.12
10 2.12
11 2.12
12 2.12
13 2.12
14 2.12
15 2.12
16 2.12
17 2.12
18 2.12
Ветер
(напр.,м/с)
Видим. Явления Облачность Т
(С)
Тd
(С)
f
(%)
Тe
(С)
Тes
(С)
Комфортность P
(гПа)
Po
(гПа)
Тmin
(С)
Tmax
(С)
R
(мм)
R24
(мм)
S
(см)
С 9 18 км 9/9 600 м -7.0 -12.0 67 -17 -17 975.5 959.8
С 12 4400 м 9/9 450 м -7.3 -10.6 77 -18 -18 975.5 959.8
С 11 6000 м {ливн. снег, морось} 10/10 420 м -7.9 -10.3 83 -19 -19 975.8 960.1
С 10 19 км в посл. час осадки {ливн. снег, морось} 9/9 450 м -8.6 -12.6 73 -19 -19 976.1 960.3
С 11 19 км слаб. снег {морось} 9/9 600 м -8.8 -13.3 70 -19 -19 976.6 960.8
С 10 13 км слаб. переохл. дождь (гололёд) 9/9 500 м -8.9 -13.0 72 -19 -19 977.1 961.3
5000 м слаб. снег {дождь} 10/10 450 м -9.4 -13.0 75 977.3 961.4
С 10 2600 м слаб. снег {дождь} 10/10 500 м -9.7 -13.1 76 -20 -20 977.3 961.4
С 10 2900 м слаб. снег {дождь} 10/10 400 м -10.2 -12.5 83 -21 -21 977.6 961.7
С 8 3200 м слаб. ледяной дождь 10/10 420 м -10.3 -13.5 77 -20 -20 977.8 961.9
С 8 4000 м слаб. снег {дождь} 10/10 420 м -10.6 -13.6 79 -20 -20 978.1 962.2
С 7 5000 м слаб. снег 10/10 400 м -10.8 -13.4 81 -20 -20 978.3 962.4 -10.8 -6.8
С 5 11 км слаб. ливневой снег 10/10 400 м -10.8 -13.8 79 -18 -18 978.9 962.9
С 7 7000 м слаб. ливневой снег 10/10 360 м -10.9 -13.7 80 -20 -20 979.5 963.5
С 5 14 км слаб. снег 10/10 360 м -11.4 -14.4 78 -19 -19 980.3 964.2
С 3 2900 м слаб. ливневой снег 10/10 450 м -11.6 -15.5 73 -17 -17 981.2 965.1
СЗ 4 5000 м слаб. ледяной дождь 10/10 360 м -11.6 -14.6 78 -19 -19 982.0 965.9
СЗ 4 19 км слаб. ливневой снег 10/10 570 м -11.6 -16.0 70 -18 -18 982.6 966.5
СЗ 4 30 км снежные зёрна {ливн. снег} 10/10 540 м -11.6 -16.6 66 -18 -18 983.2 967.1
З 3 16 км слаб. ливневой снег 10/10 660 м -11.5 -16.7 65 -17 -17 984.0 967.9
З 4 26 км снежные зёрна {ливн. снег} 10/10 630 м -11.4 -16.8 64 -19 -19 984.8 968.7
СЗ 4 2600 м слаб. ливневой снег 10/10 750 м -11.8 -15.5 74 -18 -18 985.7 969.5
СЗ 6 1700 м слаб. снег 10/10 480 м -11.4 -14.5 78 -20 -20 986.5 970.4
СЗ 5 4600 м слаб. снег 10/10 330 м -11.6 -14.4 80 -20 -20 987.5 971.4 -11.9 -11.2
З 5 2400 м слаб. ледяной дождь 10/10 600 м -11.4 -14.5 78 -19 -19 988.5 972.3
СЗ 4 3800 м слаб. снег 10/10 500 м -11.5 -14.6 78 -19 -19 989.5 973.3
СЗ 4 3400 м слаб. снег 10/10 420 м -11.5 -14.5 78 -19 -19 990.3 974.1
СЗ 5 1600 м слаб. снег 10/10 360 м -11.6 -14.6 78 -20 -20 991.0 974.8
СЗ 5 2600 м снежные зёрна 10/10 420 м -11.8 -14.7 79 -19 -19 991.7 975.4
СЗ 3 1600 м слаб. снег 10/10 240 м -11.8 -14.2 82 -18 -18 992.1 975.9
СЗ 3 1700 м слаб. снег 10/10 300 м -12.0 -14.4 82 -18 -18 992.6 976.4
СЗ 5 1700 м слаб. снег 10/10 240 м -11.8 -14.1 83 -19 -19 993.2 976.9
СЗ 4 1800 м слаб. снег 10/10 300 м -11.9 -14.3 82 -19 -19 993.6 977.3
СЗ 6 1700 м слаб. снег 10/10 400 м -12.4 -15.0 81 -21 -21 994.3 978.0
СЗ 6 3800 м слаб. снег 10/10 450 м -12.2 -15.3 78 -21 -21 994.9 978.5
С 6 13 км слаб. ливневой снег 10/10 570 м -12.0 -16.0 72 -21 -21 995.7 979.4 -12.5 -11.2
С 8 4400 м слаб. ливневой снег 10/10 540 м -11.9 -15.9 72 -22 -22 996.2 979.8
С 8 5000 м слаб. ливневой снег 10/10 450 м -12.1 -15.6 75 -22 -22 996.9 980.5
С 7 8000 м слаб. снег 10/10 450 м -12.0 -15.5 75 -21 -21 997.2 980.8
С 7 9000 м слаб. ливневой снег 10/10 540 м -12.0 -16.0 72 -21 -21 997.5 981.1
С 6 19 км слаб. снег 10/10 450 м -11.9 -15.9 72 -21 -21 997.8 981.5
С 6 6000 м слаб. ливневой снег 9/9 480 м -11.9 -15.0 78 -20 -20 998.2 981.8
9000 м {ливн. снег} 9/9 570 м -11.5 -15.7 71 998.5 982.1
С 5 18 км слаб. ливневой снег 10/10 930 м -11.6 -16.2 69 -20 -20 998.9 982.5
С 7 4000 м слаб. ливневой снег 10/10 450 м -11.7 -14.8 78 -21 -21 999.3 983.0
С 6 13 км слаб. снег 9/9 500 м -11.6 -15.3 74 -20 -20 999.7 983.3
19 км в посл. час снег {ливн. снег} 10/10 540 м -11.3 -15.7 70 1000.3 983.9
С 5 9000 м слаб. ливневой снег 10/10 630 м -11.4 -15.8 70 -19 -19 1000.5 984.1 -12.3 -11.2
С 5 30 км слаб. ливневой снег 10/10 750 м -11.3 -16.5 65 -19 -19 1001.0 984.6
СВ 3 30 км {ливн. снег} 10/10 870 м -11.3 -16.5 65 -17 -17 1001.5 985.1
В 4 30 км слаб. ливневой снег 10/10 500 м -11.3 -15.7 70 -18 -18 1001.8 985.4
В 7 27 км {ливн. снег} 10/10 840 м -11.5 -16.5 66 -21 -21 1001.7 985.3
В 8 30 км {ливн. снег} 9/9 1080 м -11.7 -15.9 71 -21 -21 1001.8 985.4
В 8 40 км 6/6 1080 м -11.9 -16.3 70 -22 -22 1001.9 985.5
В 8 45 км 5/5 1020 м -12.1 -16.1 72 -22 -22 1001.9 985.5
В 7 30 км в посл. час снег {ливн. снег} 9/9 1000 м -11.9 -15.9 72 -21 -21 1001.8 985.4
ЮВ 8 18 км {ливн. снег, снег} 6/6 1020 м -12.3 -16.1 73 -23 -23 1001.9 985.5
В 7 45 км {ливн. снег, снег} н/о -12.5 -16.3 73 -22 -22 1001.9 985.4
В 7 24 км {ливн. снег, снег} н/о -12.8 -16.8 72 -22 -22 1001.5 985.0
В 7 11 км н/о -12.8 -17.2 70 -23 -23 1001.3 984.8 -13.0 -11.1
ЮВ 9 40 км в посл. час зёрна {ливн. снег} н/о -12.4 -17.8 64 -23 -23 1001.0 984.5
В 7 45 км {ливн. снег, снег} н/о -12.7 -18.3 63 -22 -22 1000.8 984.3
В 9 800 м слаб. снег н/о -12.9 -17.8 67 -24 -24 1000.3 983.8
В 4 45 км н/о -12.6 -17.2 68 -20 -20 999.1 982.6
В 4 45 км 1/0 -12.4 -17.0 68 -20 -20 999.3 982.9
В 5 45 км 4/0 -12.4 -17.0 68 -20 -20 999.7 983.3
В 5 40 км 5/0 -12.2 -17.4 65 -20 -20 1000.4 983.9
В 5 45 км 1/0 -12.0 -17.6 63 -20 -20 1000.5 984.1
В 5 40 км 5/0 -12.2 -18.6 59 -20 -20 1001.1 984.7
В 6 40 км 9/0 2000 м -12.1 -19.2 55 -21 -21 1001.3 984.8
В 6 35 км 10/10 1500 м -12.1 -19.7 53 -21 -21 1001.6 985.2
В 5 40 км 9/9 1500 м -12.1 -19.2 55 -20 -20 1002.3 985.8
В 5 45 км 9/9 1440 м -11.7 -18.8 56 -20 -20 1002.7 986.3 -13.2 -11.5
В 5 50 км 10/0 2000 м -11.4 -18.8 54 -19 -19 1003.2 986.8
В 5 45 км 1/0 -11.3 -19.4 51 -19 -19 1004.0 987.6
В 5 40 км 1/0 -11.3 -19.4 51 -19 -19 1004.8 988.4
В 5 35 км н/о -11.3 -20.2 48 -19 -19 1005.6 989.2
В 5 50 км 6/0 -11.3 -22.1 40 -19 -19 1006.0 989.5
В 6 50 км 9/0 -11.3 -18.5 55 -20 -20 1006.6 990.2
В 6 45 км 5/0 -11.2 -18.4 55 -20 -20 1007.1 990.6
В 5 45 км 1/0 -11.3 -19.6 50 -19 -19 1007.6 991.1
В 5 35 км 3/0 -11.2 -19.6 50 -19 -19 1008.0 991.5
В 4 45 км 1/0 -11.3 -21.8 42 -18 -18 1008.3 991.8
СВ 4 45 км н/о -11.1 -20.5 46 -18 -18 1008.7 992.2
СВ 3 50 км н/о -11.4 -18.6 55 -17 -17 1009.1 992.5 -11.9 -10.7
В 3 35 км 3/0 -10.8 -18.7 52 -16 -16 1009.3 992.8
СВ 5 30 км 8/0 -11.1 -18.3 55 -19 -19 1009.6 993.1
СВ 6 50 км 1/0 -10.2 -20.8 42 -18 -18 1009.9 993.4
СВ 4 40 км н/о -10.6 -18.7 51 -18 -18 1010.4 993.9
СВ 5 35 км 8/0 -10.4 -18.6 51 -18 -18 1010.5 994.0
СВ 5 35 км 9/0 -10.3 -18.7 50 -18 -18 1010.7 994.2
С 7 45 км 8/0 -10.5 -18.9 50 -20 -20 1010.9 994.5
СВ 5 45 км 10/0 -10.9 -19.0 51 -18 -18 1011.3 994.8
СВ 5 45 км 10/0 -10.5 -20.8 43 -18 -18 1011.5 995.0
СВ 5 45 км 10/0 -10.6 -20.8 43 -18 -18 1011.6 995.1
СВ 6 45 км н/о -11.1 -19.7 49 -19 -19 1011.8 995.3
СВ 6 45 км 1/0 -11.1 -21.3 43 -20 -20 1011.9 995.3 -12.1 -10.1
С 7 35 км 5/0 -11.0 -20.9 44 -20 -20 1012.0 995.5
С 7 30 км 3/0 -11.3 -18.9 53 -20 -20 1012.3 995.8
С 5 45 км н/о -11.7 -19.5 52 -20 -20 1012.7 996.1
С 6 35 км н/о -11.4 -19.5 51 -20 -20 1012.8 996.2
С 5 50 км н/о -12.1 -18.1 61 -20 -20 1012.7 996.1
СВ 5 40 км н/о -11.9 -17.7 62 -20 -20 1012.4 995.8
С 4 40 км н/о -12.1 -17.5 64 -19 -19 1012.4 995.8
СВ 4 45 км н/о -11.8 -18.5 57 -19 -19 1011.8 995.2
СВ 3 30 км н/о -12.2 -18.4 60 -18 -18 1011.2 994.6
С 4 45 км н/о -12.6 -18.2 63 -19 -19 1010.7 994.1
СВ 3 35 км н/о -12.5 -17.9 64 -19 -19 1010.2 993.6
СВ 3 50 км н/о -12.6 -17.8 65 -18 -18 1009.8 993.2 -13.1 -10.8
СВ 4 35 км н/о -12.8 -17.9 66 -20 -20 1009.3 992.7
СВ 4 45 км н/о -13.0 -18.1 66 -20 -20 1008.9 992.3
С 4 45 км н/о -12.8 -17.8 66 -20 -20 1008.5 991.9
СВ 4 45 км н/о -12.8 -17.4 68 -20 -20 1008.0 991.4
СВ 4 45 км н/о -12.2 -17.2 66 -19 -19 1007.4 990.9
С 6 45 км н/о -12.4 -18.2 62 -21 -21 1007.0 990.4
С 6 35 км н/о -12.4 -18.0 63 -21 -21 1006.6 990.1
С 5 45 км н/о -12.3 -17.9 63 -20 -20 1006.3 989.8
СВ 5 35 км 9/9 450 м -12.7 -18.3 63 -21 -21 1006.4 989.8
СВ 5 40 км в посл. час снег {ливн. снег} 10/10 540 м -12.4 -18.0 63 -20 -20 1006.8 990.3
С 6 2200 м слаб. снег 10/10 420 м -11.8 -15.1 76 -20 -20 1007.3 990.8
С 11 400 м слаб. снег 10/10 270 м -11.1 -13.4 83 -22 -22 1008.0 991.6 -13.6 -10.7
С 8 3600 м слаб. снег 10/10 330 м -11.9 -14.2 83 -22 -22 1008.9 992.4
С 9 1700 м слаб. снег 9/9 400 м -11.8 -14.4 81 -22 -22 1009.9 993.4
С 9 1300 м слаб. снег 10/10 400 м -12.1 -14.5 82 -23 -23 1011.0 994.5
С 7 11 км слаб. ливневой снег 10/10 480 м -12.1 -15.7 75 -21 -21 1012.3 995.7
С 6 5000 м слаб. снег 10/10 420 м -12.2 -15.8 74 -21 -21 1013.4 996.7
С 6 6000 м слаб. снег 10/10 420 м -12.5 -15.8 76 -22 -22 1014.5 997.8
С 4 11 км слаб. ливневой снег 9/9 450 м -12.4 -15.9 75 -19 -19 1015.4 998.8
СЗ 3 6000 м слаб. ливневой снег 10/10 500 м -12.6 -16.6 72 -19 -19 1016.2 999.5
СЗ 3 5000 м снежные зёрна {ливн. снег} 10/10 500 м -12.4 -16.2 73 -19 -19 1017.1 1000.4
З 2 10 км в посл. час снег {ливн. снег} 10/10 630 м -12.5 -16.9 70 -16 -16 1018.0 1001.3
СЗ 1 5000 м в посл. час зёрна {ливн. снег} 9/9 660 м -12.6 -16.4 73 -15 -15 1018.9 1002.1
СЗ 3 4600 м слаб. ливневой снег 10/10 500 м -12.4 -16.0 74 -19 -19 1019.8 1003.1 -12.8 -10.7
З 4 3500 м слаб. снег 10/10 570 м -12.3 -16.1 73 -19 -19 1020.8 1004.0
ЮЗ 3 3400 м слаб. снег 10/10 600 м -12.3 -16.3 72 -18 -18 1021.7 1004.9
Ю 3 8000 м снежные зёрна {ливн. снег} 10/10 450 м -12.1 -15.9 73 -18 -18 1022.4 1005.6
ЮЗ 3 8000 м слаб. снег 10/10 480 м -11.8 -15.6 73 -18 -18 1023.2 1006.4
ЮЗ 5 7000 м слаб. ливневой снег 10/10 500 м -11.6 -15.6 72 -19 -19 1023.6 1006.8
Ю 5 4000 м слаб. ливневой снег 10/10 960 м -11.3 -15.0 74 -19 -19 1024.0 1007.3
Ю 5 8000 м в посл. час зёрна {ливн. снег} 10/10 1380 м -11.1 -15.7 69 -19 -19 1024.7 1007.9
Ю 4 5000 м слаб. ливневой снег 10/10 840 м -10.6 -14.3 74 -18 -18 1024.8 1008.1
Ю 5 900 м слаб. снег 10/10 330 м -10.3 -12.4 85 -18 -18 1025.0 1008.3
ЮВ 9 1300 м слаб. ледяной дождь 10/10 420 м -10.1 -12.2 85 -20 -20 1024.8 1008.1
Ю 9 500 м слаб. снег 10/10 800 м -9.8 -12.5 81 -20 -20 1025.3 1008.6
Ю 11 700 м слаб. снег 10/10 1000 м -9.7 -11.8 85 -21 -21 1025.0 1008.3 -12.5 -9.7
Ю 16 100 м сильн. снег 10/10 570 м -9.3 -11.4 85 -22 -22 1025.2 1008.5
Ю 16 200 м сильн. снег 9/9 500 м -8.8 -11.7 79 -21 -21 1025.2 1008.5
Ю 13
{20}
1000 м слаб. переохл. дождь (гололёд) 10/10 930 м -8.5 -11.9 76 -20 -20 1025.7 1009.1
Ю 15 400 м снег 10/10 480 м -8.1 -11.7 75 -20 -20 1025.8 1009.2
Ю 11 100 м снег 10/10 360 м -8.3 -10.1 87 -19 -19 1026.8 1010.2
Ю 12
{21}
н/о сильн. снег ?/? -7.9 -9.4 89 -19 -19 1027.4 1010.8
Ю 9 н/о сильн. снег 10/10 150 м -7.8 -9.3 89 -18 -18 1028.0 1011.5
Ю 9 н/о сильн. снег 10/10 240 м -7.6 -9.1 89 -17 -17 1028.4 1011.8
Ю 8 н/о сильн. снег 10/10 570 м -7.6 -9.8 84 -17 -17 1029.0 1012.4
Ю 9 200 м сильн. снег 10/10 420 м -7.8 -9.8 86 -18 -18 1029.3 1012.7
Ю 8 200 м ледяной дождь {снег} 10/10 400 м -7.6 -9.6 86 -17 -17 1029.9 1013.3
Ю 9 100 м сильн. снег 10/10 660 м -7.6 -10.3 81 -17 -17 1029.7 1013.1 -9.8 -7.4
Местоположение метеостанции Mittarfik Upernavik (Гренландия): широта 72.78 долгота -56.13 высота над уровнем моря 129 м.
В архиве по умолчанию представлена погода в Mittarfik Upernavik за последнюю неделю. Архивные данные за месяц целиком и за предыдущие месяцы, начиная с января 2011 года, Вы можете получить, выбрав интересующий диапазон дат из раскрывающегося списка и нажав кнопку "Найти!".
*Определитесь, кто Вы:
Внимание! Время в таблицах - всемирное. Для получения местного времени необходимо прибавить поправку, которая равна -3 ч.
Смотрите также архив погоды в соседних городах и на ближайших метеорологических станциях:
Партнеры нашего сайта:
Санатории сочи
Без наценок. Санатории Сочи
sochi-edem.ru

     
Пояснения к столбцам:
  • Ветер - указаны скорость ветра в м/с - средняя за 10 мин, порывы в срок и между сроками (в фигурных скобках) и направление, откуда дует ветер: С - северный,
  • СВ - северо-восточный, В - восточный, ЮВ - юго-восточный, Ю - южный, ЮЗ - юго-западный, З - западный, СЗ - северо-западный.
  • Видимость - горизонтальная дальность видимости в метрах или километрах. При видимости от 1 до 10 км при отсутствии осадков обычно наблюдается дымка, при ухудшении видимости до 1 км и менее - туман. В сухую погоду видимость может ухудшаться дымом, пылью или мглою.
  • Явления - указаны атмосферные явления, наблюдавшиеся в срок или в последний час перед сроком; фигурными скобками обозначены явления, наблюдавшиеся между сроками (за 1-3 часа до срока); квадратными скобками обозначены град или гололедные отложения с указанием их диаметра в мм.
  • Облачность - указаны через наклонную черту общая и нижняя облачность в баллах и высота нижней границы облаков в метрах; квадратными скобками обозначены формы облаков: Ci - перистые, Cs - перисто-слоистые, Cc - перисто-кучевые, Ac - высококучевые, As - высокослоистые, Sc - слоисто-кучевые, Ns - слоисто-дождевые, Cu - кучевые, Cb - кучево-дождевые. Подробнее классификацию облаков см. в Атласе облаков (PDF).
  • T - Температура воздуха - температура, измеренная на высоте 2 м над землей.
  • Td - Температура точки росы - температура, при понижении до которой содержащийся в воздухе водяной пар достигнет насыщения.
  • f - Относительная влажность воздуха - влажноcть воздуха, измеренная на высоте 2 м над землей.
  • Te - Эффективная температура - температура, которую ощущает одетый по сезону человек в тени. Характеристика душности погоды. При расчете учитывается влияние влажности воздуха и скорости ветра на теплоощущения человека.
  • Tes - Эффективная температура на солнце - температура, которую ощущает человек, с поправкой на солнечный нагрев. Характеристика знойности погоды. Зависит от высоты солнца над горизонтом, облачности и скорости ветра. Ночью, в пасмурную погоду, а также при ветре 12 м/с и более поправка равна нулю.
  • P - Атмосферное давление - приведенное к уровню моря атмосферное давление.
  • Po - Атмосферное давление - измеренное на уровне метеостанции атмосферное давление.
  • Tmin - Минимальная температура - минимум температуры воздуха на высоте 2 м над землей.
  • Tmax - Максимальная температура - максимум температуры воздуха на высоте 2 м над землей.
  • R - Количество осадков - Количество выпавших осадков за период времени, мм. При наведении курсора мыши на число - период времени, за который выпало указанное количество осадков.
  • R24 - Количество осадков - Количество выпавших осадков за 24 часа, мм.
  • S - Снежный покров - Высота снежного покрова, см. При наведении курсора мыши на число - состояние снежного покрова и степень покрытия местности в баллах.